Regional Weather Roundup
Issued by NWS Burlington, VT

Home | Current Version | Previous Version | Text Only | Print | Product List | Glossary On
Versions: 1 2 3 4 5 6 7 8 9 10 11 12 13 14 15 16 17 18 19 20 21 22 23 24 25 26 27 28 29 30 31 32 33 34 35 36 37 38 39 40 41 42 43 44 45 46 47 48 49 50
000
ASUS41 KBTV 301230
RWRBTV
VERMONT REGIONAL WEATHER ROUNDUP
NATIONAL WEATHER SERVICE BURLINGTON VT
800 AM EDT TUE SEP 30 2014

NOTE: "FAIR" INDICATES FEW OR NO CLOUDS BELOW 12,000 FEET WITH NO
SIGNIFICANT WEATHER AND/OR OBSTRUCTIONS TO VISIBILITY.

* THESE REPORTS ARE NOT UNDER NWS QUALITY CONTROL AND/OR DO NOT
  REPORT WEATHER SUCH AS PRECIPITATION AND FOG.

VTZ001>019-301300-
_____VERMONT_____


CITY           SKY/WX    TMP DP  RH WIND       PRES   REMARKS
BURLINGTON     MOSUNNY   52  48  86 CALM      30.00R
6HR MIN TEMP:  48; 6HR MAX TEMP:  52;

MONTPELIER     CLOUDY    56  53  90 S7        30.06S
6HR MIN TEMP:  56; 6HR MAX TEMP:  57;

MORRISVILLE    CLOUDY    59  53  80 CALM      30.03R
6HR MIN TEMP:  57; 6HR MAX TEMP:  59;

ST. JOHNSBURY*   N/A     57  53  86 MISG      30.01S
6HR MIN TEMP:  57; 6HR MAX TEMP:  59;

MIDDLEBURY*    CLOUDY    54  54 100 CALM      29.99R
6HR MIN TEMP:  50; 6HR MAX TEMP:  56;

RUTLAND*       CLOUDY    57  52  82 S9        30.01S
6HR MIN TEMP:  55; 6HR MAX TEMP:  57;

SPRINGFIELD    CLOUDY    56  54  93 CALM      30.05R
6HR MIN TEMP:  56; 6HR MAX TEMP:  58;

HIGHGATE*      CLOUDY    49  45  87 CALM      30.00S
6HR MIN TEMP:  42; 6HR MAX TEMP:  47;

NEWPORT*       CLOUDY   N/A N/A N/A S6        30.02S
BENNINGTON     CLOUDY    60  53  77 E6        30.00R
6HR MIN TEMP:  58; 6HR MAX TEMP:  61;

GALLUP MILLS*    N/A     55 N/A N/A MISG        N/A
UNION VILLAGE*   N/A     59 N/A N/A MISG        N/A
MT. MANSFIELD*   N/A     52 N/A N/A W9          N/A

_____LAKE CHAMPLAIN_____


CITY           SKY/WX    TMP DP  RH WIND       PRES   REMARKS
BURTON ISLAND*   N/A     52  48  87 N1          N/A
COLCHESTER RF*   N/A     52  52 100 N8          N/A
DIAMOND ISL*     N/A     54  52  94 N2          N/A

$$

NYZ007-026>031-035-052-083-301300-
_____NORTHERN NEW YORK_____


CITY           SKY/WX    TMP DP  RH WIND       PRES   REMARKS
PLATTSBURGH    CLOUDY    48  45  89 NW3       30.00R
6HR MIN TEMP:  45; 6HR MAX TEMP:  48;

SARANAC LAKE   MOSUNNY   45  43  93 CALM      29.97R
6HR MIN TEMP:  39; 6HR MAX TEMP:  46;

MASSENA        CLOUDY    49  48  97 E9        30.00R FOG
6HR MIN TEMP:  48; 6HR MAX TEMP:  50;

OGDENSBURG*    CLOUDY    50  48  93 E8        29.97S FOG
POTSDAM*       CLOUDY    46  46 100 NE6       29.98R FOG
PARISHVILLE*     N/A     57 N/A N/A SE3         N/A
WATERTOWN      CLOUDY    53  49  86 NE8       29.93S FOG
6HR MIN TEMP:  53; 6HR MAX TEMP:  56;

FT DRUM        FOG       50  50 100 N6        29.93S VSB 1/2
6HR MIN TEMP:  50; 6HR MAX TEMP:  58;

ALBANY         CLOUDY    59  56  89 CALM      29.98R
6HR MIN TEMP:  55; 6HR MAX TEMP:  59;

GLENS FALLS    CLOUDY    58  56  93 CALM      29.98R
6HR MIN TEMP:  51; 6HR MAX TEMP:  59;


$$
NHZ002-005-011-301300-
_____NEW HAMPSHIRE_____


CITY           SKY/WX    TMP DP  RH WIND       PRES   REMARKS
LEBANON        CLOUDY    59  53  80 NE3       30.03R
6HR MIN TEMP:  58; 6HR MAX TEMP:  60;

KEENE          CLOUDY    55  46  71 CALM      30.05S
6HR MIN TEMP:  57; 6HR MAX TEMP:  57;

MT WASHINGTON  PTSUNNY   45  34  65 W10         N/A
6HR MIN TEMP:  40; 6HR MAX TEMP:  45;

PLYMOUTH       CLOUDY    56  56 100 CALM      30.04S
6HR MIN TEMP:  55; 6HR MAX TEMP:  56;

WHITEFIELD     CLOUDY    53  49  86 CALM      30.04R
6HR MIN TEMP:  47; 6HR MAX TEMP:  56;


$$

_____REGIONAL QUEBEC LOCATIONS_____


CITY           SKY/WX    TMP DP  RH WIND       PRES   REMARKS
MONTREAL       CLOUDY    50  46  87 NE10      30.01R
QUEBEC CITY    CLOUDY    45  43  93 NE14G21   30.08R
SHERBROOKE     CLOUDY    54  50  87 E6        30.03R

_____REGIONAL ONTARIO LOCATIONS_____


CITY           SKY/WX    TMP DP  RH WIND       PRES   REMARKS
OTTAWA         CLOUDY    48  46  93 NE8       30.00R FOG

______KEY______
VSB  - VISIBILITY IN MILES
WCI  - WIND CHILL INDEX
HX   - HEAT INDEX
$$
NNNN


USA.gov is the U.S. government's official web portal to all federal, state and local government web resources and services.